Date String (YYYY-MM-DD hh:mm:ss) UTC,Instrument flags,absolute air pressure of the measurement (hPa),sample flow rate (lpm),inlet stack bypass flow (lpm),air temperature of the measurement (°C),ambient temperature measured by the external sensor (°C),aerosol sample conditioner tube jacket temperature (°C),OPC LED temperature (°C),internal box temperature (°C),relative humidity of the measurement (%),span deviation,mass concentration of particles derived from Lorenz-Mie calculation of OPC scattering (μg/m³),mass concentration of particles derived from Lorenz-Mie calculation of OPC scattering (μg/m³),mass concentration of particles derived from Lorenz-Mie calculation of OPC scattering (μg/m³)
DateTimeUTC,F1_M11,P_M11,Q1_M11,Q2_M11,T1_M11,T2_M11,T3_M11,T4_M11,T5_M11,U1_M11,ZSPAN_M11,X2_M11,X0_M11,X1_M11
2024-05-03 17:00:00,SystemResetWarning,0821.8,5.00,000.00,025.8,025.3,000.0,034.0,027.6,018.4,0000.0,0004.73,0019.22,0003.31
2024-05-03 17:01:00,SystemResetWarning,0821.7,4.99,000.00,025.9,025.3,000.0,034.0,027.6,018.1,0000.0,0004.72,0019.67,0003.31
2024-05-03 17:02:00,SystemResetWarning,0821.8,5.00,000.00,025.9,025.4,000.0,034.0,027.6,018.0,0000.0,0004.81,0019.33,0003.32
2024-05-03 17:03:00,SystemResetWarning,0821.8,5.02,000.00,025.9,025.4,000.0,034.0,027.6,018.1,0000.0,0004.82,0018.66,0003.32
2024-05-03 17:04:00,SystemResetWarning,0821.8,5.00,000.00,025.9,025.4,000.0,034.0,027.6,018.0,0000.0,0004.89,0020.15,0003.32
2024-05-03 17:05:00,SystemResetWarning,0821.8,5.00,000.00,026.0,025.4,000.0,034.1,027.6,018.0,0000.0,0004.93,0019.80,0003.31
2024-05-03 17:06:00,SystemResetWarning,0821.8,5.00,000.00,026.0,025.5,000.0,034.1,027.7,018.0,0000.0,0004.94,0019.29,0003.30
2024-05-03 17:07:00,SystemResetWarning,0821.8,5.00,000.00,026.0,025.5,000.0,034.1,027.7,017.8,0000.0,0004.92,0020.21,0003.29
2024-05-03 17:08:00,SystemResetWarning,0821.8,5.00,000.00,026.0,025.5,000.0,034.1,027.8,018.1,0000.0,0004.95,0020.88,0003.28
2024-05-03 17:09:00,SystemResetWarning,0821.7,4.99,000.00,026.0,024.9,000.0,034.2,027.4,018.0,0000.0,0004.94,0021.13,0003.27
2024-05-03 17:10:00,SystemResetWarning,0821.6,5.00,000.00,025.6,023.0,000.0,034.3,026.3,018.7,0000.0,0004.93,0022.43,0003.26
2024-05-03 17:11:00,SystemResetWarning,0821.5,5.01,000.00,025.2,022.0,000.0,034.2,025.7,019.6,0000.0,0004.97,0021.76,0003.26
2024-05-03 17:12:00,SystemResetWarning,0821.6,5.01,000.00,025.0,022.3,000.0,034.1,025.8,019.8,0000.0,0004.99,0021.37,0003.28
2024-05-03 17:13:00,SystemResetWarning,0821.6,4.98,000.00,025.0,022.7,000.0,033.9,026.1,020.2,0000.0,0005.00,0021.28,0003.30
2024-05-03 17:14:00,SystemResetWarning,0821.6,5.00,000.00,025.0,023.0,000.0,033.8,026.3,020.6,0000.0,0005.01,0021.46,0003.31
2024-05-03 17:15:00,SystemResetWarning,0821.6,5.01,000.00,025.0,023.4,000.0,033.7,026.5,020.1,0000.0,0004.96,0019.79,0003.32
2024-05-03 17:16:00,SystemResetWarning,0821.6,5.01,000.00,025.1,023.6,000.0,033.6,026.6,019.6,0000.0,0004.95,0018.71,0003.32
2024-05-03 17:17:00,SystemResetWarning,0821.6,4.98,000.00,025.1,023.9,000.0,033.6,026.7,019.5,0000.0,0004.97,0018.76,0003.33
2024-05-03 17:18:00,SystemResetWarning,0821.6,5.00,000.00,025.1,024.1,000.0,033.5,026.8,019.9,0000.0,0005.06,0018.94,0003.35
2024-05-03 17:19:00,SystemResetWarning,0821.8,5.00,000.00,025.2,024.2,000.0,033.5,026.9,019.5,0000.0,0005.12,0018.77,0003.36
2024-05-03 17:20:00,SystemResetWarning,0821.6,5.01,000.00,025.2,024.4,000.0,033.5,026.9,020.5,0000.0,0005.14,0018.58,0003.37
2024-05-03 17:21:00,SystemResetWarning,0821.9,5.01,000.00,025.3,024.5,000.0,033.5,027.0,021.1,0000.0,0005.26,0017.46,0003.40
2024-05-03 17:22:00,SystemResetWarning,0821.9,4.99,000.00,025.3,024.6,000.0,033.5,027.1,020.2,0000.0,0005.27,0016.46,0003.40
2024-05-03 17:23:00,SystemResetWarning,0821.9,4.99,000.00,025.3,024.7,000.0,033.5,027.1,020.0,0000.0,0005.27,0016.96,0003.41
2024-05-03 17:24:00,SystemResetWarning,0821.8,5.00,000.00,025.4,024.8,000.0,033.5,027.2,020.1,0000.0,0005.19,0016.80,0003.39
2024-05-03 17:25:00,SystemResetWarning,0821.7,5.00,000.00,025.4,024.9,000.0,033.5,027.2,020.2,0000.0,0005.21,0017.11,0003.40
2024-05-03 17:26:00,SystemResetWarning,0821.4,5.01,000.00,025.5,024.9,000.0,033.6,027.3,020.7,0000.0,0005.21,0017.35,0003.41
2024-05-03 17:27:00,SystemResetWarning,0821.4,4.99,000.00,025.5,025.0,000.0,033.6,027.3,020.3,0000.0,0005.20,0017.69,0003.42
2024-05-03 17:28:00,SystemResetWarning,0821.8,4.99,000.00,025.6,025.0,000.0,033.6,027.3,019.6,0000.0,0005.19,0018.44,0003.42
2024-05-03 17:29:00,SystemResetWarning,0822.0,5.01,000.00,025.6,025.1,000.0,033.6,027.4,019.3,0000.0,0005.15,0017.49,0003.44
2024-05-03 17:30:00,SystemResetWarning,0822.1,5.01,000.00,025.6,025.1,000.0,033.7,027.4,019.5,0000.0,0005.10,0017.94,0003.44
2024-05-03 17:31:00,SystemResetWarning,0822.0,4.98,000.00,025.5,023.7,000.0,033.8,026.6,019.5,0000.0,0005.13,0018.36,0003.44
2024-05-03 17:32:00,SystemResetWarning,0821.7,5.00,000.00,025.0,022.1,000.0,033.8,025.7,020.2,0000.0,0005.13,0019.19,0003.43
2024-05-03 17:33:00,SystemResetWarning,0822.0,5.01,000.00,024.8,022.1,000.0,033.8,025.7,020.3,0000.0,0005.18,0019.29,0003.45
2024-05-03 17:34:00,SystemResetWarning,0822.1,4.99,000.00,024.8,022.5,000.0,033.6,025.9,020.8,0000.0,0005.25,0020.60,0003.45
2024-05-03 17:35:00,SystemResetWarning,0822.0,4.99,000.00,024.8,022.8,000.0,033.5,026.1,020.9,0000.0,0005.36,0021.62,0003.49
2024-05-03 17:36:00,SystemResetWarning,0822.0,5.02,000.00,024.8,023.2,000.0,033.4,026.3,021.1,0000.0,0005.44,0021.31,0003.53
2024-05-03 17:37:00,SystemResetWarning,0821.9,5.00,000.00,024.8,023.5,000.0,033.3,026.5,021.0,0000.0,0005.52,0021.55,0003.56
2024-05-03 17:38:00,SystemResetWarning,0822.1,4.99,000.00,024.9,023.7,000.0,033.3,026.6,020.8,0000.0,0005.65,0022.38,0003.64
2024-05-03 17:39:00,SystemResetWarning,0821.6,4.99,000.00,024.9,023.9,000.0,033.3,026.7,020.5,0000.0,0005.70,0024.16,0003.71
2024-05-03 17:40:00,SystemResetWarning,0821.4,5.00,000.00,025.0,024.1,000.0,033.2,026.7,020.3,0000.0,0005.74,0024.68,0003.77
2024-05-03 17:41:00,SystemResetWarning,0821.3,5.01,000.00,025.0,024.3,000.0,033.2,026.8,020.7,0000.0,0005.82,0024.86,0003.84
2024-05-03 17:42:00,SystemResetWarning,0821.3,5.00,000.00,025.1,024.4,000.0,033.3,026.9,020.8,0000.0,0005.90,0025.06,0003.93
2024-05-03 17:43:00,SystemResetWarning,0821.4,5.00,000.00,025.2,024.5,000.0,033.3,027.0,021.1,0000.0,0005.90,0025.35,0004.01
2024-05-03 17:44:00,SystemResetWarning,0821.6,4.99,000.00,025.2,024.6,000.0,033.3,027.0,021.7,0000.0,0005.90,0027.66,0004.08
2024-05-03 17:45:00,SystemResetWarning,0821.9,5.00,000.00,025.3,024.7,000.0,033.3,027.1,021.1,0000.0,0005.91,0027.30,0004.16
2024-05-03 17:46:00,SystemResetWarning,0822.0,4.99,000.00,025.3,024.8,000.0,033.3,027.1,020.5,0000.0,0006.00,0026.28,0004.21
2024-05-03 17:47:00,SystemResetWarning,0821.9,5.00,000.00,025.3,024.3,000.0,033.4,026.8,020.3,0000.0,0006.04,0027.98,0004.26
2024-05-03 17:48:00,SystemResetWarning,0821.4,5.01,000.00,025.0,022.3,000.0,033.5,025.7,021.1,0000.0,0006.07,0030.06,0004.32
2024-05-03 17:49:00,SystemResetWarning,0821.3,5.00,000.00,024.6,021.5,000.0,033.5,025.2,021.5,0000.0,0006.10,0030.32,0004.36
2024-05-03 17:50:00,SystemResetWarning,0821.3,5.02,000.00,024.5,021.9,000.0,033.4,025.4,021.9,0000.0,0006.19,0028.96,0004.42
2024-05-03 17:51:00,SystemResetWarning,0821.3,4.99,000.00,024.4,022.3,000.0,033.2,025.6,021.8,0000.0,0006.23,0027.97,0004.47
2024-05-03 17:52:00,SystemResetWarning,0821.3,5.00,000.00,024.5,022.7,000.0,033.1,025.9,021.6,0000.0,0006.28,0026.98,0004.54
2024-05-03 17:53:00,SystemResetWarning,0821.3,5.00,000.00,024.5,023.0,000.0,033.0,026.1,021.4,0000.0,0006.28,0026.29,0004.56
2024-05-03 17:54:00,SystemResetWarning,0821.2,5.00,000.00,024.6,023.3,000.0,033.0,026.3,021.2,0000.0,0006.32,0025.16,0004.57
2024-05-03 17:55:00,SystemResetWarning,0821.2,4.99,000.00,024.6,023.5,000.0,032.9,026.4,021.3,0000.0,0006.36,0022.89,0004.57
2024-05-03 17:56:00,SystemResetWarning,0821.1,4.99,000.00,024.7,023.7,000.0,032.9,026.5,020.9,0000.0,0006.40,0022.95,0004.55
2024-05-03 17:57:00,SystemResetWarning,0821.2,5.01,000.00,024.7,023.9,000.0,032.9,026.6,020.6,0000.0,0006.36,0023.80,0004.54
2024-05-03 17:58:00,SystemResetWarning,0821.2,5.01,000.00,024.8,024.1,000.0,032.9,026.7,020.4,0000.0,0006.31,0022.29,0004.50
2024-05-03 17:59:00,SystemResetWarning,0821.2,5.00,000.00,024.9,024.2,000.0,033.0,026.7,020.3,0000.0,0006.26,0020.24,0004.44
